User: anonymous   Login
Location: Unspecified
(0.0000°N, 0.0000°E)
Time: 18:57:44
(UTC+00:00)
Language:

Nova 1 - Orbit

View from above orbital plane
View from above orbital plane
View from above satellite
View from above satellite

Ground track
Ground track

The orbit data is extracted from the following two-line orbital elements,

1 12458U 81044A   17084.67889301 +.00000049 +00000-0 +96407-4 0  9992
2 12458 089.9559 121.7981 0012509 238.1040 237.2980 13.22957610730828
Epoch (UTC): 25 March 2017 16:17:36
Eccentricity: 0.0012509
inclination: 89.9559°
perigee height: 1164 km
apogee height: 1183 km
right ascension of ascending node: 121.7981°
argument of perigee: 238.1040°
revolutions per day: 13.22957610
mean anomaly at epoch: 237.2980°
orbit number at epoch: 73082

The dashed part of the orbit path shows where the satellite is in the earth's shadow,  

DLR